Regional Weather Roundup
Issued by NWS

Home | Current Version | Previous Version | Text Only | Print | Product List | Glossary Off
Versions: 1 2 3 4 5 6 7 8 9 10 11 12 13 14 15 16 17 18 19 20 21 22 23 24 25 26 27 28 29 30 31 32 33 34 35 36 37 38 39 40 41 42 43 44 45 46 47 48 49 50

000
ASUS45 KSLC 240110
RWRUT

UTAH REGIONAL WEATHER ROUNDUP
NATIONAL WEATHER SERVICE SALT LAKE CITY UT
700 PM MDT WED JUL 23 2014

UTZ001>011-023>025-240200-

NORTHERN UTAH

CITY           SKY/WX    TMP DP  RH WIND       PRES   REMARKS
HILL AFB       SUNNY     98  38  12 CALM      30.00F HX  93
LOGAN          NOT AVBL
OGDEN            N/A     99  38  12 N5        29.96F HX  94
PROVO AIRPORT  PTSUNNY   91  45  19 SE21      30.02F
SALT LAKE CITY PTSUNNY  101  35  10 S22G30    29.93F HX  95
VERNAL         PTSUNNY   90  38  16 NW16G25   30.12S
WENDOVER       SUNNY    102  36  10 SW16G28   29.91F HX  96
HEBER CITY     PTSUNNY   86  37  17 S13G23    30.13S
WEST JORDAN    SUNNY     97  55  24 SE20      30.00S HX  95

$$

UTZ012>022-026-027-240200-

SOUTHERN UTAH

CITY           SKY/WX    TMP DP  RH WIND       PRES   REMARKS
BRYCE CANYON   MOSUNNY   85  37  18 S10       30.34F
CEDAR CITY     SUNNY     92  32  12 SW14      30.14F
MILFORD        SUNNY     98  37  12 SW22      30.05F HX  93
MOAB/CYNLANDS  SUNNY     98  39  13 SE6       30.03F HX  93
PRICE          CLOUDY    90  30  11 SW12G17   30.20F
ST GEORGE      MOCLDY   106  39  10 SW9       29.91F HX 100
KANAB            N/A     99  39  12 SW6       30.11F HX  94

$$

REGIONAL REPORTS     COLORADO/ARIZONA

CITY           SKY/WX    TMP DP  RH WIND       PRES   REMARKS
CRAIG, CO      MOSUNNY   87  40  19 SW6       30.21F
GRAND JUNCTION MOSUNNY   96  39  13 S10       30.09F HX  91
RIFLE          MOSUNNY   95  36  12 S18       30.14S HX  90
MONTROSE       PTSUNNY   90  40  17 SE7       30.21F
CORTEZ         SUNNY     94  36  13 S9        30.21S
PAGE, AZ       MOSUNNY  100  44  14 E13       30.03S HX  96
GRAND CANYON   PTSUNNY   89  36  15 VRB3      30.28F
KINGMAN        MOSUNNY  100  37  11 SW14      30.00F HX  95
FLAGSTAFF      CLOUDY    82  44  26 S9        30.33S

$$

REGIONAL REPORTS    NEVADA/IDAHO/WYOMING

CITY           SKY/WX    TMP DP  RH WIND       PRES   REMARKS
LAS VEGAS, NV  MOSUNNY  109  21   4 S16G25    29.80F HX 100
ELY            SUNNY     93  21   7 SW20G26   30.14F
ELKO           SUNNY     92  22   8 W24G31    30.04S
POCATELLO, ID  MOSUNNY   96  40  14 N8        29.98F HX  92
BURLEY         PTSUNNY   84  55  36 SE3       29.92F
EVANSTON, WY   MOSUNNY   88  39  17 W10       30.25F
ROCK SPRINGS   PTSUNNY   85  31  14 NW8       30.23F

$$



USA.gov is the U.S. government's official web portal to all federal, state and local government web resources and services.